Flag for Norway Weather past 2 weeks in Førde, Norway

Now
41 °F

Partly sunny.


Feels Like: 35 °F
Forecast: 31 / 42 °F
Wind: 9 mph from South

Location: Forde / Bringeland

Current Time: Mar 28, 2015 at 12:19:47 PM

Latest Report: Mar 28, 2015 at 11:50 AM


Visibility: N/A

Pressure: 29.62 "Hg

Humidity: 61%

Dew point: 28 °F

Location of FørdeLocation

Historic Weather in Førde — Graph

°F

Førde temperature yesterday

Maximum temperature yesterday: 41 °F (at 1:50 PM)
Minimum temperature yesterday: 27 °F (at 1:50 AM)
Average temperature yesterday: 35 °F

Past Weeks' High & Low Weather Summary

 TemperatureHumidityPressure
High54 °F (Mar 15, 12:50 PM)100% (Mar 19, 11:50 AM)30.72 "Hg (Mar 19, 11:50 AM)
Low25 °F (Mar 24, 9:20 AM)18% (Mar 15, 7:20 PM)29.39 "Hg (Mar 23, 8:50 AM)
Average38 °F66%30.14 "Hg
* Reported Mar 13 10:20 AM — Mar 28 10:50 AM, Førde, Weather by CustomWeather, © 2015

Note: Actual official high and low records may vary slightly from our data, if they occured in-between our weather recording intervals... More about our weather records

Advertising

Førde weather history for previous 24 hours

 ConditionsComfort  
Time TempWeatherWind HumidityBarometerVisibility
10:50 AM
Sat, Mar 28
39 °FPartly sunny.10 mph65%29.65 "HgN/A
10:20 AM39 °FScattered clouds.15 mph70%29.68 "HgN/A
9:50 AM37 °FBroken clouds.18 mph70%29.68 "HgN/A
9:20 AM37 °FBroken clouds.17 mph70%29.71 "HgN/A
8:50 AM37 °FBroken clouds.17 mph75%29.71 "HgN/A
8:20 AM37 °FPartly sunny.15 mph75%29.74 "HgN/A
7:50 AM37 °FLight rain. Partly sunny.15 mph75%29.74 "HgN/A
11:20 PM
Fri, Mar 27
34 °FPartly cloudy.6 mph93%29.83 "HgN/A
10:50 PM34 °FPartly cloudy.6 mph93%29.83 "HgN/A
10:20 PM34 °FPassing clouds.5 mph93%29.83 "HgN/A
9:50 PM34 °FPartly cloudy.2 mph93%29.83 "HgN/A
9:20 PM34 °FPartly cloudy.2 mph93%29.83 "HgN/A
8:50 PM34 °FLight snow. Partly cloudy.3 mph93%29.83 "Hg2 mi
8:20 PM32 °FLight snow. Partly cloudy.5 mph100%29.80 "Hg2 mi
7:50 PM32 °FLight snow. Partly cloudy.9 mph100%29.80 "Hg2 mi
7:20 PM34 °FPartly cloudy.8 mph93%29.80 "Hg4 mi
6:50 PM36 °FBroken clouds.9 mph81%29.80 "HgN/A
6:20 PM37 °FBroken clouds.5 mph70%29.80 "HgN/A
5:50 PM37 °FPartly sunny.8 mph65%29.77 "HgN/A
5:20 PM37 °FPartly sunny.8 mph65%29.77 "HgN/A
4:50 PM37 °FPartly sunny.8 mph65%29.77 "HgN/A
4:20 PM39 °FPartly sunny.8 mph56%29.77 "HgN/A
3:50 PM39 °FPartly sunny.7 mph56%29.77 "HgN/A
3:20 PM39 °FPartly sunny.8 mph56%29.77 "HgN/A
2:50 PM41 °FScattered clouds.7 mph57%29.77 "HgN/A
2:20 PM41 °FScattered clouds.6 mph57%29.77 "HgN/A
1:50 PM41 °FScattered clouds.5 mph53%29.77 "HgN/A
12:50 PM39 °FPassing clouds.8 mph56%29.77 "HgN/A
12:20 PM37 °FPassing clouds.8 mph56%29.77 "HgN/A
Weather by CustomWeather, © 2015

See weather overviewHow to use our weather pages